Regional Weather Roundup
Issued by NWS

Home | Current Version | Previous Version | Graphics & Text | Print | Product List | Glossary On
Versions: 1 2 3 4 5 6 7 8 9 10 11 12 13 14 15 16 17 18 19 20 21 22 23 24 25 26 27 28 29 30 31 32 33 34 35 36 37 38 39 40 41 42 43 44 45 46 47 48 49 50
000
ASUS43 KLMK 250310
RWRKY
KENTUCKY REGIONAL WEATHER ROUNDUP
NATIONAL WEATHER SERVICE LOUISVILLE KY
1100 PM EDT MON JUL 24 2017

NOTE "FAIR" INDICATES FEW OR NO CLOUDS BELOW 12,000 FEET
WITH NO SIGNIFICANT WEATHER AND/OR OBSTRUCTIONS TO VISIBILITY.

KYZ001>023-026-027-061>063-070>075-250400-
WESTERN AND SOUTH CENTRAL KENTUCKY

CITY           SKY/WX    TMP DP  RH WIND       PRES   REMARKS
PADUCAH        CLOUDY    77  73  87 CALM      29.98R
HENDERSON      CLEAR     77  70  79 E5        30.02R
OWENSBORO      CLOUDY    80  70  71 NE5       30.01R
HOPKINSVILLE   MOCLDY    80  76  87 CALM      30.00R
BOWLING GREEN  PTCLDY    82  73  74 CALM      30.01R
GLASGOW        CLOUDY    78  73  83 CALM      30.01R
$$

KYZ024-025-028>034-038-045-046-053-250400-
NORTH CENTRAL KENTUCKY

CITY           SKY/WX    TMP DP  RH WIND       PRES   REMARKS
LOUISVILLE/SDF PTCLDY    80  67  64 NE7       30.02R
LOUISVILLE/LOU CLEAR     79  69  71 N5        30.03R
FORT KNOX      CLEAR     76  67  74 N5        30.01S
$$

KYZ035>037-039>044-047>052-055>060-089>105-250400-
NORTHEAST KENTUCKY

CITY           SKY/WX    TMP DP  RH WIND       PRES   REMARKS
LEXINGTON      MOCLDY    76  66  71 N5        30.04R
COVINGTON      CLEAR     73  64  73 NE13      30.06R
FRANKFORT      CLOUDY    78  65  63 N6        30.03R
$$

KYZ054-064>069-076>088-106>120-250400-
SOUTHEAST KENTUCKY

CITY           SKY/WX    TMP DP  RH WIND       PRES   REMARKS
JACKSON        FOG       70  69  97 CALM      30.05R VSB 1
LONDON         PTCLDY    76  67  73 N3        30.05R
SOMERSET       CLOUDY    73  68  83 CALM      30.05R
MIDDLESBORO    PTCLDY    74  69  87 NW3       30.06R
MONTICELLO     PTCLDY    73  72  96 CALM      30.05R
$$




USA.gov is the U.S. government's official web portal to all federal, state and local government web resources and services.